Location: Spondin
(51.8528°N, 111.6118°W)
Time: 17:23:48
(UTC+00:00)

Vanguard 2 Rocket - Pass Details

Date: 02 June 2022
Orbit: 553 x 3323 km, 32.9° (Epoch: 02 July)

Event Time Altitude Azimuth Distance (km) Brightness Sun altitude
Rises 22:16:41 0° 261° (W) 7,309 12.2 45.7°
Reaches altitude 10° 22:22:21 10° 254° (WSW) 6,254 12.2 44.9°
Maximum altitude 22:38:30 35° 200° (SSW) 3,913 11.1 42.6°
Drops below altitude 10° 22:50:22 10° 141° (SE) 4,598 10.4 40.9°
Sets 22:53:47 0° 132° (SE) 5,239 10.5 40.4°
